User: anonymous
Location: Starry Hill Observatory
(46.8582°N, 122.3590°W)
Time: 18:17:54
(UTC-07:00)
Language:

Cosmos 1300 Rocket - Orbit

View from above orbital plane
View from above orbital plane
View from above satellite
View from above satellite

Ground track
Ground track

The orbit data is extracted from the following two-line orbital elements,

1 12786U 81082B   14211.65091358  .00000221  00000-0  23481-4 0  9389
2 12786 082.4865 239.4413 0019283 127.0281 012.5607 14.84136998778667
Epoch (UTC): 30 July 2014 15:37:18
Eccentricity: 0.0019283
inclination: 82.4865°
perigee height: 603 km
apogee height: 630 km
right ascension of ascending node: 239.4413°
argument of perigee: 127.0281°
revolutions per day: 14.84136998
mean anomaly at epoch: 12.5607°
orbit number at epoch: 77866

The dashed part of the orbit path shows where the satellite is in the earth's shadow,  

DLR